Location: West Sayville
(40.7279°N, 73.0976°W)
Time: 09:26:19
(UTC+00:00)

SeaSat 1 - Pass Details

Date: 29 October 2020
Orbit: 744 x 747 km, 108.0° (Epoch: 23 November)

Event Time Altitude Azimuth Distance (km) Brightness Sun altitude
Exits shadow 23:00:02 14° 48° (NE) 2,031 4.2 -13.5°
Maximum altitude 23:00:14 14° 46° (NE) 2,029 4.2 -13.5°
Drops below altitude 10° 23:02:35 10° 17° (NNE) 2,271 4.7 -14.0°
Sets 23:05:59 0° 352° (N) 3,200 5.8 -14.6°
